THOR ABLESTAR R/B, 118

Orbit data source: Space-Track

THOR ABLESTAR R/B, 118 is space debris in LEO originally from a launch on Thu, 29 Jun 1961 UTC launched from the Air Force Eastern Test Range (AFETR). Debris objects in space refer to the collection of defunct objects orbiting the Earth. Examples of debris include non-operational satellites, rocket bodies, and fragments generated from explosions, collisions, or faulty payload assembly.

Loading next visibility...
Identifier
118, 1961-015C
Orbit
LEO
Country
Flag of USUS
Related business
Manufacturer
Aerojet
Mission
Spacecraft
Bus & Motor
ABLESTAR, Unknown motor
Mass
~600 kg wet, 600 kg dry
Launch date (UTC)
1961-06-29 (65 years ago)
Launch vehicle
Unknown
Launch site
Air Force Eastern Test Range (AFETR)
Object type
Payload
Rocket body
Debris
Shape & HBR
Unknown
Radar Cross Section
Large (>1 m²)

Expand to show TLE details & history
Last TLE update: 1 day ago

TLE from 1 day ago
0 THOR ABLESTAR R/B
1 00118U 61015C   26174.98645417  .00000009  00000-0  55505-4 0  9990
2 00118  66.7643  43.5905 0089192 267.2541  91.8332 14.02737782317093
Epoch: 2026-06-23T23:40Z
TLE epoch observation values (Epoch: 2026-06-23T23:40:29.640Z)
Latitude
-0.00005°
Longitude
136.31683°
Altitude
889.065 km
Speed
7.407 km/s
True Right ascension
02h 54m 21s
True Declination
0° 00' 00"
Sunlit
Object was in daylight at epoch
Visualization orbit readout
Latitude
Unknown
Longitude
Unknown
Altitude
Unknown
Speed
Unknown
Apparent Right ascension
Unknown
Apparent Declination
Unknown
Sunlit
N/A
Visualization observer readout
Local Sidereal Time
11:04:58
Azimuth
Unknown
Elevation
Unknown
Doppler factor
Unknown
Orbital elements
Apogee altitude
947.479 km
Perigee altitude
817.957 km
Semi-major axis
7,260.855 km
Eccentricity
0.00892
Inclination
66.7643°
RAAN
43.5905°
Arg. of periapsis
267.2541°
True anomaly
92.85432°
Mean anomaly
91.8332°
Eccentric anomaly
92.3438°
Mean motion
3.50802 °/min
Orbital period
102.62 mins
BSTAR
0.000055505

Documentation

Showing up to 5 results
|